STARLINK-1236

decayed
NORAD ID: 45191 Int'l Des: 2020-012 Owner: SPXS Country: US Constellation: starlink
LEOCIRCULAR
Group

About STARLINK-1236

Description loading...

Altitude History

Altitude vs Time

uPlot chart will show altitude changes over time

Two-Line Element Set

1 45191U 20012P 25037.76635520 .09346981 12343-4 54989-3 0 9991
2 45191 53.0359 348.5839 0004051 194.9331 247.3357 16.41701812275003
Epoch: Feb 6, 2025 • Age: 5319 hours

Current Status

Position data unavailable
Launch Date Feb 17, 2020
Age 5.5 years
Decay Date Feb 7, 2025
Type internet

Technical Details

Classification Payload
Mass 260.00 kg
Dry Mass 248.00 kg
Total Mass 260.00 kg
Length 0.20 m
Diameter 2.80 m
Span 9.00 m
Shape Box + pan
Manufacturer SPXS
Bus Type Starlink
Phase Status Reentered
Owner/State SPXS/US

Large Constellations

Loading constellations...